x

8723214 - Virginia Key, Fl (vakf1) Weather Station

9:54pm - Wed 4th Mar 2015 All times are EST. -5 hours from GMT.

  • Wind
    11mph, 14mph gusts
  • Sea Temp 77°f
  • Air Temp 76°f
  • Sea Pressure 1019.9mb
  • 8723214 - Virginia Key, Fl
  • 8723214 - Virginia Key, Fl

More Historic Weather Station data

Upgrade to MSW Pro to gain access to the past 30 days of data for over 8000 Wavebouys and Weather Stations around the globe.

Join Pro

Comparision Forecast

View Surf forecast
   
Wed 03/04 9:54pm 11 14 mph 1019.9mb 77f 76f
9:48pm 10 13 mph 1019.9mb 77f 76f
9:42pm 10 14 mph 1020mb 77f 76f
9:36pm 10 14 mph 1019.9mb 77f 76f
9:30pm 11 14 mph 1019.9mb 77f 76f
9:24pm 10 14 mph 1019.9mb 77f 76f
9:18pm 10 13 mph 1020mb 77f 76f
9:12pm 10 15 mph 1020mb 77f 76f
9:06pm 13 14 mph 1019.9mb 77f 76f
9:00pm 13 16 mph 1019.9mb 77f 76f
8:54pm 11 14 mph 1019.9mb 77f 76f
8:48pm 13 15 mph 1019.8mb 77f 76f
8:42pm 13 16 mph 1019.8mb 77f 76f
8:36pm 13 15 mph 1019.8mb 77f 76f
8:30pm 13 15 mph 1019.7mb 77f 76f
8:24pm 11 15 mph 1019.7mb 77f 76f
8:18pm 11 15 mph 1019.6mb 77f 76f
8:12pm 13 15 mph 1019.5mb 77f 76f
8:06pm 10 13 mph 1019.5mb 77f 76f
8:00pm 11 13 mph 1019.4mb 77f 76f
7:54pm 11 14 mph 1019.4mb 77f 76f
7:48pm 11 14 mph 1019.3mb 77f 76f
7:42pm 10 14 mph 1019.3mb 77f 76f
7:36pm 9 11 mph 1019.3mb 77f 76f
7:30pm 8 10 mph 1019.2mb 77f 76f
7:24pm 9 13 mph 1019.1mb 77f 76f
7:18pm 9 13 mph 1019.1mb 77f 76f
7:12pm 8 9 mph 1019.1mb 77f 76f
7:06pm 8 10 mph 1019.1mb 77f 76f
7:00pm 8 10 mph 1019.2mb 77f 76f
6:54pm 9 10 mph 1019.1mb 77f 76f
6:48pm 8 11 mph 1019.1mb 77f 76f
6:42pm 8 10 mph 1019.1mb 78f 76f
6:36pm 8 11 mph 1019.1mb 78f 76f
6:30pm 9 10 mph 1019.1mb 78f 76f
6:24pm 8 10 mph 1019.1mb 78f 76f
6:18pm 7 9 mph 1019.1mb 78f 76f
6:12pm 9 10 mph 1019.1mb 78f 76f
6:06pm 8 10 mph 1019mb 78f 76f
6:00pm 8 10 mph 1019.1mb 78f 76f
5:54pm 7 10 mph 1019mb 78f 76f
5:48pm 8 10 mph 1019mb 78f 77f
5:42pm 9 11 mph 1019mb 78f 76f
5:36pm 8 10 mph 1019mb 78f 77f
5:30pm 8 10 mph 1018.9mb 78f 77f
5:24pm 8 10 mph 1018.9mb 78f 77f
5:18pm 8 10 mph 1018.9mb 78f 77f
5:12pm 8 9 mph 1018.9mb 77f 77f
5:06pm 7 10 mph 1018.9mb 77f 77f
5:00pm 9 11 mph 1018.9mb 77f 77f
4:54pm 9 10 mph 1018.8mb 77f 77f
4:48pm 9 11 mph 1018.8mb 77f 77f
4:42pm 8 10 mph 1018.8mb 77f 77f
4:36pm 9 10 mph 1018.8mb 77f 77f
4:30pm 7 11 mph 1018.9mb 77f 77f
4:24pm 8 10 mph 1018.9mb 77f 77f
4:18pm 8 11 mph 1018.9mb 77f 77f
4:12pm 8 11 mph 1018.9mb 77f 76f
4:06pm 8 11 mph 1019mb 77f 77f
4:00pm 7 11 mph 1019mb 77f 77f
3:54pm 9 11 mph 1019mb 77f 77f
3:48pm 9 10 mph 1019mb 77f 76f
3:42pm 9 13 mph 1019.1mb 77f 76f
3:36pm 10 13 mph 1019.1mb 77f 76f
3:30pm 8 11 mph 1019.1mb 77f 77f
3:24pm 9 11 mph 1019.1mb 77f 76f
3:18pm 8 13 mph 1019.2mb 77f 77f
3:12pm 10 14 mph 1019.2mb 77f 76f
3:06pm 10 14 mph 1019.2mb 77f 77f
3:00pm 10 14 mph 1019.3mb 77f 77f
2:54pm 10 14 mph 1019.2mb 77f 77f
2:48pm 10 14 mph 1019.3mb 77f 77f
2:42pm 10 14 mph 1019.3mb 77f 77f
2:36pm 13 15 mph 1019.3mb 77f 76f
2:30pm 10 15 mph 1019.4mb 77f 77f
2:24pm 11 16 mph 1019.4mb 77f 76f
2:18pm 10 16 mph 1019.5mb 77f 77f
2:12pm 11 15 mph 1019.6mb 77f 76f
2:06pm 11 15 mph 1019.6mb 76f 77f
2:00pm 14 16 mph 1019.7mb 76f 76f
1:54pm 13 17 mph 1019.7mb 76f 76f
1:48pm 13 17 mph 1019.8mb 76f 77f
1:42pm 10 16 mph 1019.8mb 76f 77f
1:36pm 10 15 mph 1019.9mb 76f 77f
1:30pm 11 16 mph 1020mb 76f 77f
1:24pm 11 16 mph 1020mb 76f 77f
1:18pm 11 16 mph 1020.2mb 76f 77f
1:12pm 10 17 mph 1020.2mb 76f 77f
1:06pm 14 16 mph 1020.3mb 76f 77f
1:00pm 13 17 mph 1020.4mb 76f 77f
12:54pm 13 16 mph 1020.5mb 76f 77f
12:48pm 13 15 mph 1020.6mb 76f 76f
12:42pm 11 16 mph 1020.7mb 76f 77f
12:36pm 13 16 mph 1020.9mb 76f 77f
12:30pm 13 17 mph 1020.9mb 76f 77f
12:24pm 11 15 mph 1021.1mb 76f 77f
12:18pm 13 17 mph 1021.1mb 76f -
12:12pm 11 16 mph 1021.2mb 76f -
12:06pm 13 16 mph 1021.3mb 76f -
12:00pm 14 16 mph 1021.3mb 76f 76f
11:54am 13 17 mph 1021.4mb 76f 77f
11:48am 13 18 mph 1021.4mb 76f 77f
11:42am 15 17 mph 1021.5mb 76f 77f
11:36am 14 17 mph 1021.5mb 76f 76f
11:30am 11 16 mph 1021.6mb 76f 77f
11:24am 13 16 mph 1021.6mb 76f 76f
11:18am 11 15 mph 1021.6mb 76f 76f
11:12am 13 15 mph 1021.7mb 76f 76f
11:06am 13 15 mph 1021.7mb 76f 76f
11:00am 10 14 mph 1021.7mb 76f 77f
10:54am 11 15 mph 1021.7mb 76f 76f
10:48am 11 16 mph 1021.8mb 76f 77f
10:42am 10 16 mph 1021.8mb 76f 77f
10:36am 11 15 mph 1021.8mb 76f 76f
10:30am 11 16 mph 1021.7mb 76f 76f
10:24am 9 14 mph 1021.8mb 76f 76f
10:18am 11 14 mph 1021.8mb 76f 76f
10:12am 13 17 mph 1021.8mb 75f 76f
10:06am 13 15 mph 1021.8mb 75f 76f
10:00am 13 15 mph 1021.7mb 75f 76f
9:54am 11 14 mph 1021.7mb 75f 77f
9:48am 11 16 mph 1021.7mb 75f 77f
9:42am 11 14 mph 1021.7mb 75f 76f
9:36am 13 15 mph 1021.6mb 75f 76f
9:30am 13 15 mph 1021.6mb 75f 76f
9:24am 11 15 mph 1021.6mb 75f 76f
9:18am 13 15 mph 1021.5mb 75f 76f
9:12am 10 14 mph 1021.5mb 75f 76f
9:06am 8 15 mph 1021.5mb 75f 76f
9:00am 11 16 mph 1021.5mb 75f 76f
8:54am 11 14 mph 1021.5mb 75f 76f
8:48am 10 15 mph 1021.4mb 75f 76f
8:42am 11 16 mph 1021.3mb 75f 76f
8:36am 10 16 mph 1021.2mb 75f 76f
8:30am 13 15 mph 1021.1mb 75f 76f
8:24am 13 16 mph 1020.9mb 75f 76f
8:18am 13 17 mph 1020.9mb 75f 76f
8:12am 13 16 mph 1020.8mb 75f 76f
8:06am 11 16 mph 1020.7mb 75f 76f
8:00am 13 16 mph 1020.6mb 75f 76f
7:54am 11 15 mph 1020.5mb 75f 76f
7:48am 11 15 mph 1020.4mb 75f 76f
7:42am 13 15 mph 1020.4mb 75f 76f
7:36am 10 13 mph 1020.3mb 75f 75f
7:30am 9 11 mph 1020.2mb 75f 75f
7:24am 10 14 mph 1020.2mb 75f 75f
7:18am 11 15 mph 1020.1mb 75f 75f
7:12am 13 17 mph 1020mb 75f 75f
7:06am 11 14 mph 1020mb 75f 75f
7:00am 9 14 mph 1019.9mb 75f 75f
6:54am 11 16 mph 1019.8mb 75f 75f
6:48am 13 17 mph 1019.8mb 75f 75f
6:42am 13 17 mph 1019.7mb 75f 75f
6:36am 13 18 mph 1019.7mb 75f 75f
6:30am 10 16 mph 1019.6mb 76f 75f
6:24am 10 15 mph 1019.6mb 76f 75f
6:18am 13 16 mph 1019.5mb 76f 75f
6:12am 13 17 mph 1019.4mb 76f 75f
6:06am 11 17 mph 1019.3mb 76f 75f
6:00am 14 16 mph 1019.3mb 76f 75f
5:54am 13 16 mph 1019.2mb 76f 75f
5:48am 11 16 mph 1019.2mb 76f 75f
5:42am 13 15 mph 1019.1mb 76f 75f
5:36am 13 16 mph 1019.1mb 76f 75f
5:30am 13 17 mph 1019mb 76f 75f
5:24am 13 15 mph 1019mb 76f 75f
5:18am 11 15 mph 1018.9mb 76f 75f
5:12am 11 16 mph 1018.9mb 76f 75f
5:06am 13 15 mph 1018.9mb 76f 75f
5:00am 11 15 mph 1018.8mb 76f 75f
4:54am 14 17 mph 1018.8mb 76f 75f
4:48am 11 17 mph 1018.7mb 76f 75f
4:42am 11 16 mph 1018.6mb 76f 75f
4:36am 14 16 mph 1018.6mb 76f 75f
4:30am 13 15 mph 1018.6mb 76f 75f
4:24am 13 16 mph 1018.6mb 76f 75f
4:18am 10 15 mph 1018.6mb 76f 75f
4:12am 9 13 mph 1018.6mb 76f 75f
4:06am 8 14 mph 1018.7mb 76f 75f
4:00am 11 15 mph 1018.7mb 76f 75f
3:54am 10 15 mph 1018.6mb 76f 75f
3:48am 10 14 mph 1018.7mb 76f 75f
3:42am 11 15 mph 1018.7mb 76f 75f
3:36am 11 15 mph 1018.7mb 76f 75f
3:30am 13 17 mph 1018.8mb 76f 75f
3:24am 13 15 mph 1018.8mb 76f 75f
3:18am 11 15 mph 1018.8mb 76f 75f
3:12am 11 15 mph 1018.8mb 76f 75f
3:06am 10 15 mph 1018.8mb 76f 75f
3:00am 14 18 mph 1018.8mb 76f 75f
2:54am 13 17 mph 1018.8mb 76f 75f
2:48am 14 17 mph 1018.8mb 76f 75f
2:42am 11 18 mph 1018.8mb 76f 75f
2:36am 11 17 mph 1018.9mb 76f 75f
2:30am 13 17 mph 1018.9mb 76f 75f
2:24am 13 18 mph 1018.9mb 76f 75f
2:18am 14 18 mph 1019mb 76f 75f
2:12am 14 18 mph 1019mb 76f 75f
2:06am 13 16 mph 1019.1mb 76f 75f
2:00am 14 17 mph 1019.1mb 76f 75f
1:54am 13 15 mph 1019.1mb 76f 75f
1:48am 14 17 mph 1019.2mb 76f 75f
1:42am 10 17 mph 1019.2mb 76f 75f
1:36am 15 20 mph 1019.3mb 76f 75f
1:30am 14 17 mph 1019.4mb 76f 75f
1:24am 13 16 mph 1019.5mb 76f 75f
1:18am 13 17 mph 1019.6mb 76f 75f
1:12am 14 18 mph 1019.7mb 76f 75f
1:06am 13 16 mph 1019.8mb 76f 75f
1:00am 13 17 mph 1019.9mb 76f 75f
12:54am 13 17 mph 1019.9mb 76f 75f
12:48am 14 20 mph 1020mb 76f 75f
12:42am 14 20 mph 1020mb 76f 75f
12:36am 13 21 mph 1020mb 76f 75f
12:30am 15 20 mph 1020mb 76f 75f
12:24am 15 20 mph 1020.1mb 76f 75f
12:18am 15 20 mph 1020.1mb 77f 75f
12:12am 16 20 mph 1020.2mb 76f 75f
12:06am 15 21 mph 1020.3mb 77f 75f
12:00am 14 21 mph 1020.4mb 77f 75f
Tue 03/03 11:54pm 14 20 mph 1020.4mb 77f 75f
11:48pm 15 18 mph 1020.5mb 77f 75f
11:42pm 15 20 mph 1020.5mb 77f 75f
11:36pm 13 21 mph 1020.6mb 77f 76f
11:30pm 15 20 mph 1020.6mb 77f 75f
11:24pm 16 24 mph 1020.6mb 77f 75f
11:18pm 18 23 mph 1020.7mb 77f 75f
11:12pm 16 22 mph 1020.6mb 77f 76f
11:06pm 20 23 mph 1020.6mb 77f 76f
11:00pm 17 23 mph 1020.6mb 77f 75f
10:54pm 17 23 mph 1020.6mb 77f 76f
10:48pm 18 22 mph 1020.7mb 76f 76f
10:42pm 17 21 mph 1020.8mb 76f 76f
10:36pm 16 22 mph 1020.7mb 76f 76f
10:30pm 14 20 mph 1020.8mb 77f 76f
10:24pm 14 21 mph 1020.9mb 77f 76f
10:18pm 15 21 mph 1020.9mb 77f 76f
10:12pm 15 20 mph 1020.9mb 77f 76f
10:06pm 16 20 mph 1020.8mb 77f 76f
10:00pm 15 20 mph 1020.9mb 76f 76f
9:54pm 15 21 mph 1020.9mb 76f 76f
9:48pm 15 20 mph 1020.9mb 76f 76f
9:42pm 16 21 mph 1020.9mb 76f 76f
9:36pm 14 18 mph 1020.9mb 76f 76f
9:30pm 15 20 mph 1020.9mb 76f 76f
9:24pm 17 21 mph 1020.9mb 76f 76f
9:18pm 15 20 mph 1020.9mb 76f 76f
9:12pm 15 20 mph 1020.9mb 76f 76f
9:06pm 15 20 mph 1020.8mb 76f 76f
9:00pm 15 20 mph 1020.7mb 76f 76f
8:54pm 15 20 mph 1020.7mb 76f 76f
8:48pm 16 20 mph 1020.6mb 76f 76f
8:42pm 16 20 mph 1020.6mb 76f 76f
8:36pm 16 22 mph 1020.6mb 76f 76f
8:30pm 17 21 mph 1020.5mb 76f 76f
8:24pm 16 20 mph 1020.5mb 76f 76f
8:18pm 17 21 mph 1020.4mb 76f 76f
8:12pm 16 21 mph 1020.3mb 76f 76f
8:06pm 16 21 mph 1020.3mb 76f 76f
8:00pm 18 21 mph 1020.2mb 76f 76f
7:54pm 17 22 mph 1020.1mb 76f 76f
7:48pm 18 22 mph 1020mb 76f 76f
7:42pm 17 21 mph 1020mb 76f 76f
7:36pm 16 21 mph 1020mb 76f 76f
7:30pm 16 20 mph 1020mb 76f 76f
7:24pm 17 21 mph 1020mb 77f 76f
7:18pm 17 20 mph 1020mb 77f 76f
7:12pm 16 20 mph 1020mb 77f 76f
7:06pm 16 20 mph 1020mb 77f 76f
7:00pm 14 18 mph 1020mb 77f 76f
6:54pm 14 18 mph 1020mb 77f 76f
6:48pm 14 20 mph 1019.9mb 77f 76f
6:42pm 15 17 mph 1020mb 77f 76f
6:36pm 14 17 mph 1019.9mb 77f 76f
6:30pm 15 17 mph 1019.9mb 77f 76f
6:24pm 14 16 mph 1019.9mb 77f 76f
6:18pm 13 16 mph 1019.9mb 77f 76f
6:12pm 13 16 mph 1019.9mb 77f 76f
6:06pm 13 16 mph 1019.9mb 77f 76f
6:00pm 14 16 mph 1019.9mb 77f 76f
5:54pm 14 16 mph 1019.8mb 77f 76f
5:48pm 11 15 mph 1019.8mb 77f 76f
5:42pm 13 16 mph 1019.8mb 78f 76f
5:36pm 13 15 mph 1019.8mb 78f 76f
5:30pm 11 15 mph 1019.8mb 78f 76f
5:24pm 13 15 mph 1019.8mb 77f 76f
5:18pm 13 16 mph 1019.8mb 77f 76f
5:12pm 13 15 mph 1019.8mb 77f 76f
5:06pm 13 16 mph 1019.7mb 77f 76f
5:00pm 14 17 mph 1019.6mb 77f 76f
4:54pm 14 15 mph 1019.6mb 77f 76f
4:48pm 13 15 mph 1019.6mb 77f 76f
4:42pm 10 15 mph 1019.6mb 77f 76f
4:36pm 11 14 mph 1019.6mb 77f 76f
4:30pm 13 15 mph 1019.6mb 77f 76f
4:24pm 10 16 mph 1019.7mb 77f 76f
4:18pm 11 16 mph 1019.6mb 77f 76f
4:12pm 13 15 mph 1019.7mb 77f 76f
4:06pm 16 18 mph 1019.7mb 77f 76f
4:00pm 13 17 mph 1019.6mb 77f 76f
3:54pm 14 16 mph 1019.7mb 77f 76f
3:48pm 13 17 mph 1019.7mb 77f 76f
3:42pm 15 18 mph 1019.8mb 77f 76f
3:36pm 15 17 mph 1019.8mb 77f 76f
3:30pm 14 17 mph 1019.9mb 77f 76f
3:24pm 14 16 mph 1019.9mb 77f 76f
3:18pm 14 16 mph 1019.9mb 77f 76f
3:12pm 13 17 mph 1019.9mb 77f 76f
3:06pm 13 17 mph 1019.9mb 77f 76f
3:00pm 13 17 mph 1020mb 77f 76f
2:54pm 14 17 mph 1020.1mb 77f 76f
2:48pm 14 17 mph 1020.1mb 77f 76f
2:42pm 14 16 mph 1020.1mb 77f 76f
2:36pm 15 17 mph 1020.1mb 77f 76f
2:30pm 15 17 mph 1020.1mb 77f 76f
2:24pm 15 18 mph 1020.2mb 76f 76f
2:18pm 15 18 mph 1020.3mb 76f 76f
2:12pm 14 17 mph 1020.4mb 76f 76f
2:06pm 15 17 mph 1020.4mb 76f 76f
2:00pm 15 17 mph 1020.5mb 76f 76f
1:54pm 14 16 mph 1020.7mb 76f 76f
1:48pm 13 16 mph 1020.8mb 76f 76f
1:42pm 14 17 mph 1020.9mb 76f 76f
1:36pm 14 18 mph 1021mb 76f 76f
1:30pm 15 20 mph 1021mb 76f 76f
1:24pm 15 18 mph 1021mb 76f 76f
1:18pm 15 18 mph 1021.1mb 76f 76f
1:12pm 13 18 mph 1021.2mb 76f 76f
1:06pm 15 18 mph 1021.3mb 76f 76f
1:00pm 15 18 mph 1021.3mb 76f 76f
12:54pm 14 17 mph 1021.4mb 76f 76f
12:48pm 15 18 mph 1021.5mb 76f 75f
12:42pm 15 18 mph 1021.6mb 76f 75f
12:36pm 14 17 mph 1021.7mb 76f 75f
12:30pm 14 17 mph 1021.8mb 76f 75f
12:24pm 15 16 mph 1021.9mb 76f 75f
12:18pm 13 16 mph 1022.1mb 76f 75f
12:12pm 14 17 mph 1022.2mb 76f 75f
12:06pm 13 16 mph 1022.3mb 76f 75f
12:00pm 14 17 mph 1022.4mb 76f 75f
11:54am 13 15 mph 1022.4mb 76f 75f
11:48am 14 16 mph 1022.5mb 76f 75f
11:42am 13 16 mph 1022.5mb 76f 75f
11:36am 13 17 mph 1022.6mb 76f 75f
11:30am 13 16 mph 1022.7mb 76f -
11:24am 11 16 mph 1022.7mb 76f -
11:18am 11 16 mph - - 75f
11:12am 14 17 mph - - 75f
11:06am 13 16 mph - - 75f
11:00am  -  mph 1022.7mb 75f 75f
10:54am  -  mph 1022.7mb 76f 75f
10:48am 15 17 mph - 75f 75f
10:42am 13 17 mph - 75f 75f
10:36am 14 17 mph - 75f 75f
10:30am 13 17 mph - 75f 75f
10:24am 14 16 mph - 75f 75f
10:18am  -  mph 1022.9mb 75f 75f
10:12am  -  mph 1022.9mb 75f 75f
10:06am  -  mph 1022.8mb 75f 75f
9:48am 14 17 mph - - -
9:42am 13 18 mph - - -
9:36am 15 17 mph - - -
9:30am  -  mph - - 75f
9:24am  -  mph - - 75f
9:18am 13 15 mph - 75f -
9:12am 11 17 mph - 75f -
9:06am 13 16 mph - 75f -
9:00am  -  mph 1022.6mb - 75f
8:54am  -  mph 1022.5mb - 75f
8:48am 14 17 mph - - 75f
8:42am 14 16 mph - - 75f
8:36am 13 16 mph - - 75f
8:30am  -  mph - 75f -
8:24am  -  mph - 75f -
8:18am 13 16 mph 1022.2mb - 75f
8:12am 11 16 mph 1022.1mb - 75f
8:06am 14 16 mph 1022.1mb - 75f
8:00am 14 16 mph - 75f -
7:54am 13 16 mph - 75f -
7:48am  -  mph 1021.9mb 75f -
7:42am  -  mph 1021.9mb 75f -
7:36am  -  mph 1021.8mb 75f -
7:30am  -  mph 1021.7mb - 75f
7:24am  -  mph 1021.7mb - 74f
7:18am  -  mph 1021.7mb - 74f
7:12am  -  mph 1021.6mb - 74f
7:06am  -  mph 1021.5mb - 74f
7:00am 15 16 mph 1021.4mb 75f 74f
6:54am 13 15 mph 1021.4mb 75f 74f
6:48am 13 15 mph - 75f -
6:42am 13 16 mph - 75f -
6:36am 13 15 mph - 75f -
6:30am 13 16 mph 1020.9mb 75f -
6:24am 14 15 mph 1020.8mb 75f -
6:18am  -  mph 1020.7mb 75f 74f
6:12am  -  mph 1020.5mb 75f 74f
6:06am  -  mph 1020.4mb 75f 74f
6:00am  -  mph 1020.4mb 75f 74f
5:54am  -  mph 1020.3mb 75f 74f
5:48am 13 16 mph - - -
5:42am 11 16 mph - - -
5:36am 15 16 mph - - -
5:30am  -  mph 1020.2mb 75f -
5:24am  -  mph 1020.2mb 75f -
5:18am 14 16 mph - 75f 74f
5:12am 13 16 mph - 75f 74f
5:06am 13 15 mph - 75f 74f
5:00am 11 16 mph 1020.1mb 75f -
4:54am 13 16 mph 1020mb 75f -
4:48am  -  mph 1020mb 75f -
4:42am  -  mph 1020mb 75f -
4:36am  -  mph 1020mb 76f -
4:30am 14 17 mph 1020mb - 75f
4:24am 14 17 mph 1019.9mb - 75f
4:18am  -  mph - - 75f
4:12am  -  mph - - 75f
4:06am  -  mph - - 75f
4:00am  -  mph 1020mb 76f 75f
3:54am  -  mph 1020mb 76f 75f
3:48am 15 17 mph 1020.1mb - 75f
3:42am 14 17 mph 1020.1mb - 75f
3:36am 15 17 mph 1020.1mb - 75f
3:30am 14 16 mph 1020.1mb - 75f
3:24am 14 18 mph 1020.2mb - 75f
3:18am  -  mph - 76f 75f
3:12am  -  mph - 76f 75f
3:06am  -  mph - 76f 75f
3:00am 14 16 mph 1020.3mb - 75f
2:54am 11 15 mph 1020.4mb - 75f
2:48am 13 15 mph 1020.4mb 76f 75f
2:42am 11 14 mph 1020.5mb 76f 75f
2:36am 11 15 mph 1020.7mb 76f 75f
2:30am 10 13 mph 1020.8mb - 75f
2:24am 10 14 mph 1020.8mb - 75f
2:18am  -  mph - - 75f
2:12am  -  mph - - 75f
2:06am  -  mph - - 75f
2:00am 13 15 mph - - -
1:54am 11 14 mph - - -
1:30am 10 15 mph 1021.3mb - 75f
1:24am 11 15 mph 1021.4mb - 75f
1:06am 10 15 mph - - 75f
1:00am  -  mph - 76f 75f
12:54am  -  mph - 76f 75f
12:48am  -  mph - 76f 75f
12:42am  -  mph - 76f 75f
12:36am  -  mph - 76f 75f
12:30am  -  mph 1021.9mb - -
12:24am  -  mph 1021.9mb - -
12:18am  -  mph 1022mb 76f 75f
12:12am  -  mph 1022.1mb 76f 75f
12:06am  -  mph 1022.1mb 76f 75f
12:00am  -  mph 1022.2mb - -
Mon 03/02 11:54pm  -  mph 1022.2mb - -
11:48pm  -  mph - 76f 75f
11:42pm  -  mph - 76f 75f
11:24pm  -  mph 1022.4mb 76f 75f
11:18pm  -  mph 1022.4mb 76f 75f
11:12pm  -  mph 1022.4mb 76f 75f
11:06pm  -  mph 1022.4mb - 75f
11:00pm  -  mph 1022.5mb - 75f
10:54pm 10 14 mph 1022.6mb 76f 75f
10:48pm  -  mph - 76f -
10:42pm  -  mph - 76f -
10:36pm  -  mph - 76f -
10:30pm 14 16 mph 1022.8mb - 75f
10:24pm 13 15 mph 1022.9mb - 75f
10:18pm  -  mph - 76f -
10:12pm  -  mph - 76f -
10:06pm  -  mph - 76f -
10:00pm  -  mph 1022.7mb 76f 75f
9:54pm  -  mph 1022.8mb 76f 75f
9:48pm 10 14 mph - 76f -
9:42pm 10 14 mph - 76f -
9:36pm 13 15 mph - 76f -
9:30pm  -  mph - 76f -
9:24pm  -  mph - 76f -
9:18pm  -  mph - 76f -
9:12pm  -  mph - 76f -
9:06pm  -  mph - 76f -
9:00pm 11 15 mph 1022.8mb 76f 75f
8:54pm 11 16 mph 1022.8mb 76f 75f
8:48pm  -  mph - 76f 75f
8:42pm  -  mph - 76f 75f
8:36pm  -  mph - 76f 75f
8:30pm  -  mph - 76f 74f
8:24pm  -  mph - 76f 75f
8:18pm  -  mph 1022.8mb 76f 75f
8:12pm  -  mph 1022.8mb 76f 75f
8:06pm  -  mph 1022.7mb 76f 75f
8:00pm 10 13 mph 1022.6mb 76f -
7:54pm 10 14 mph 1022.7mb 76f -
7:48pm 7 11 mph - 76f -
7:42pm 8 13 mph - 76f -
7:36pm 7 11 mph - 76f -
7:30pm  -  mph 1022.5mb 76f -
7:24pm  -  mph 1022.4mb 76f -
7:18pm  -  mph 1022.3mb - 75f
7:12pm  -  mph 1022.2mb - 75f
7:06pm  -  mph 1022.1mb - 75f
7:00pm 7 11 mph - 76f -
6:54pm 8 13 mph - 76f -
6:48pm 9 14 mph - 76f -
6:42pm 8 13 mph - 76f -
6:36pm 7 10 mph - 76f -
6:30pm 7 9 mph - 76f 75f
6:24pm 8 14 mph - 77f 75f
6:18pm 8 13 mph 1021.9mb 77f 75f
6:12pm 7 11 mph 1021.9mb 77f 75f
6:06pm 8 13 mph 1021.9mb 77f 76f
6:00pm 8 11 mph 1021.8mb 77f 76f
5:54pm 8 11 mph 1021.9mb 77f 76f
5:48pm 10 13 mph 1021.8mb 77f 76f
5:42pm 9 13 mph 1021.7mb 77f 76f
5:36pm 10 14 mph 1021.6mb 77f 76f
5:30pm 10 14 mph 1021.7mb 77f 76f
5:24pm 13 14 mph 1021.7mb 77f 76f
5:18pm 8 13 mph 1021.7mb 77f 76f
5:12pm 11 14 mph 1021.7mb 77f 76f
5:06pm 9 13 mph 1021.7mb 77f 76f
5:00pm 10 14 mph 1021.6mb 77f 76f
4:54pm 11 14 mph 1021.5mb 77f 76f
4:48pm 11 15 mph 1021.5mb 77f 76f
4:42pm 13 14 mph 1021.4mb 77f 76f
4:36pm 11 14 mph 1021.4mb 77f 76f
4:30pm 11 14 mph 1021.3mb 77f 76f
4:24pm 11 13 mph 1021.3mb 77f 76f
4:18pm 11 14 mph 1021.4mb 77f 76f
4:12pm 11 14 mph 1021.4mb 77f 76f
4:06pm 11 13 mph 1021.4mb 77f 76f
4:00pm 10 14 mph 1021.4mb 77f 76f
3:54pm 13 14 mph 1021.4mb 77f 76f
3:48pm 10 13 mph 1021.4mb 77f 76f
3:42pm 10 13 mph 1021.4mb 76f 76f
3:36pm 10 13 mph 1021.4mb 76f 76f
3:30pm 10 13 mph 1021.5mb 76f 76f
3:24pm 9 11 mph 1021.5mb 76f 76f
3:18pm 8 10 mph 1021.5mb 76f 76f
3:12pm 8 10 mph 1021.5mb 76f 76f
3:06pm 8 10 mph 1021.5mb 76f 76f
3:00pm 8 10 mph 1021.6mb 76f 76f
2:54pm 8 9 mph 1021.7mb 76f 76f
2:48pm 8 10 mph 1021.7mb 76f 76f
2:42pm 8 11 mph 1021.7mb 76f 76f
2:36pm 9 13 mph 1021.8mb 76f 76f
2:30pm 9 11 mph 1021.9mb 76f 75f
2:24pm 10 13 mph 1022mb 76f 75f
2:18pm 9 11 mph 1022mb 76f 76f
2:12pm 10 13 mph 1022.1mb 76f 75f
2:06pm 9 11 mph 1022.1mb 76f 75f
2:00pm 10 11 mph 1022.2mb 76f 75f
1:54pm 9 13 mph 1022.3mb 76f 75f
1:48pm 9 13 mph 1022.3mb 76f 75f
1:42pm 10 14 mph 1022.4mb 76f 75f
1:36pm 9 14 mph 1022.5mb 76f 75f
1:30pm 9 11 mph 1022.6mb 76f 75f
1:24pm 10 13 mph 1022.7mb 76f 75f
1:18pm 10 13 mph 1022.7mb 76f 75f
1:12pm 8 13 mph 1022.9mb 76f 75f
1:06pm 9 11 mph 1023mb 76f 75f
1:00pm 9 13 mph 1023.1mb 76f 75f
12:54pm 10 11 mph 1023.2mb 76f 75f
12:48pm 9 11 mph 1023.3mb 76f 75f
12:42pm 10 13 mph 1023.5mb 76f 75f
12:36pm 9 13 mph 1023.5mb 76f 75f
12:30pm 10 13 mph 1023.7mb 76f 75f
12:24pm 10 13 mph 1023.9mb 76f 75f
12:18pm 10 13 mph 1024mb 76f 75f
12:12pm 10 11 mph 1024.1mb 76f 75f
12:06pm 10 13 mph 1024.2mb 76f 75f
12:00pm 9 11 mph 1024.3mb 76f 75f
11:54am 9 13 mph 1024.3mb 75f 75f
11:48am 10 11 mph 1024.4mb 75f 75f
11:42am 10 13 mph 1024.5mb 75f 75f
11:36am 10 13 mph 1024.6mb 75f 75f
11:30am 9 13 mph 1024.6mb 75f 75f
11:24am 9 13 mph 1024.7mb 75f 75f
11:18am 10 13 mph 1024.7mb 75f 75f
11:12am 9 11 mph 1024.8mb 75f 75f
11:06am 10 13 mph 1024.9mb 75f 75f
11:00am 9 11 mph 1024.9mb 75f 75f
10:54am 9 11 mph 1024.9mb 75f 75f
10:48am 9 13 mph 1024.9mb 75f 75f
10:42am 9 13 mph 1024.9mb 75f 75f
10:36am 9 13 mph 1024.9mb 75f 75f
10:30am 10 13 mph 1025mb 75f 75f
10:24am 8 10 mph 1025mb 75f 75f
10:18am 9 13 mph 1025mb 75f 75f
10:12am 9 13 mph 1025.1mb 75f 75f
10:06am 9 13 mph 1025mb 75f 75f
10:00am 10 14 mph 1025mb 75f 75f
9:54am 9 13 mph 1025mb 75f 75f
9:48am 9 11 mph 1025mb 75f 75f
9:42am 9 11 mph 1025mb 75f 75f
9:36am 10 13 mph 1024.9mb 75f 75f
9:30am 9 14 mph 1024.9mb 75f 75f
9:24am 10 13 mph 1024.9mb 75f 75f
9:18am 9 11 mph 1024.9mb 75f 75f
9:12am 9 13 mph 1024.8mb 75f 75f
9:06am 10 14 mph 1024.8mb 75f 75f
9:00am 8 13 mph 1024.8mb 75f 75f
8:54am 10 11 mph 1024.7mb 75f 75f
8:48am 10 14 mph 1024.6mb 75f 75f
8:42am 10 13 mph 1024.6mb 75f 75f
8:36am 10 14 mph 1024.6mb 75f 75f
8:30am 10 13 mph 1024.5mb 75f 75f
8:24am 10 14 mph 1024.4mb 75f 75f
8:18am 9 13 mph 1024.3mb 75f 75f
8:12am 9 11 mph 1024.4mb 75f 75f
8:06am 10 13 mph 1024.4mb 75f 75f
8:00am 10 13 mph 1024.4mb 75f 75f
7:54am 10 14 mph 1024.4mb 75f 75f
7:48am 10 11 mph 1024.3mb 75f 75f
7:42am 10 13 mph 1024.3mb 75f 75f
7:36am 10 13 mph 1024.2mb 75f 75f
7:30am 11 14 mph 1024.2mb 75f 75f
7:24am 11 14 mph 1024.2mb 75f 75f
7:18am 11 14 mph 1024.1mb 75f 75f
7:12am 11 14 mph 1024.1mb 75f 74f
7:06am 10 14 mph 1024mb 75f 75f
7:00am 11 14 mph 1024mb 75f 75f
6:54am 13 15 mph 1024mb 75f 75f
6:48am 13 16 mph 1024mb 75f 75f
6:42am 10 13 mph 1024mb 75f 74f
6:36am 7 13 mph 1023.9mb 75f 74f
6:30am 11 14 mph 1023.8mb 75f 74f
6:24am 9 14 mph 1023.7mb 75f 74f
6:18am 11 15 mph - - -
6:12am 11 14 mph 1023.5mb 75f 74f
6:06am 8 11 mph 1023.5mb 75f 74f
6:00am 8 11 mph 1023.5mb 75f 74f
5:54am 9 14 mph 1023.4mb 75f 74f
5:48am 10 13 mph 1023.3mb 75f 74f
5:42am 10 14 mph 1023.3mb 75f 75f
5:36am 10 14 mph 1023.2mb 75f 74f
5:30am 10 11 mph 1023.1mb 75f 74f
5:24am 10 14 mph 1023mb 75f 74f
5:18am 10 14 mph 1023mb 75f 75f
5:12am 11 14 mph 1023mb 75f 75f
5:06am 9 11 mph 1022.9mb 75f 75f
5:00am 10 14 mph 1022.9mb 75f 75f
4:54am 11 15 mph 1022.8mb 75f 75f
4:48am 14 16 mph 1022.7mb 75f 75f
4:42am 14 17 mph 1022.7mb 75f 75f
4:36am 14 17 mph 1022.6mb 75f 75f
4:30am 14 17 mph 1022.6mb 75f 75f
4:24am 15 18 mph 1022.6mb 75f 75f
4:18am 15 18 mph 1022.6mb 75f 75f
4:12am 14 17 mph 1022.7mb 75f 75f
4:06am 13 16 mph 1022.7mb 75f 75f
4:00am 11 15 mph 1022.7mb 75f 75f
3:54am 14 16 mph 1022.7mb 75f 75f
3:48am 14 17 mph 1022.7mb 75f 75f
3:42am 13 16 mph 1022.8mb 75f 75f
3:36am 13 16 mph 1022.8mb 75f 75f
3:30am 14 17 mph 1022.8mb 75f 75f
3:24am 14 17 mph 1022.9mb 75f 75f
3:18am 14 17 mph 1023mb 75f 75f
3:12am 13 15 mph 1023mb 75f 75f
3:06am 11 16 mph 1023mb 75f 75f
3:00am 14 17 mph 1023mb 75f 75f
2:54am 15 17 mph 1023mb 75f 75f
2:48am 14 17 mph 1023.1mb 75f 75f
2:42am 14 16 mph 1023.1mb 75f 75f
2:36am 14 17 mph 1023.2mb 75f 75f
2:30am 14 17 mph 1023.2mb 75f 75f
2:24am 14 16 mph 1023.3mb 75f 75f
2:18am 13 16 mph 1023.4mb 75f 75f
2:12am 14 17 mph 1023.4mb 75f 75f
2:06am 13 15 mph 1023.6mb 75f 75f
2:00am 13 15 mph 1023.7mb 75f 75f
1:54am 14 15 mph 1023.8mb 75f 75f
1:48am 13 17 mph 1023.9mb 75f 75f
1:24am 14 16 mph 1024mb 76f 75f
1:00am 14 20 mph - 76f 75f
12:42am 15 17 mph 1024.4mb 76f 75f
12:36am 13 16 mph 1024.5mb 76f 75f
12:30am 13 16 mph 1024.5mb 76f 75f
12:24am 13 17 mph 1024.6mb 76f 75f
12:18am 14 17 mph 1024.6mb 76f 75f
12:12am 16 20 mph 1024.5mb 76f 75f
12:06am 14 17 mph 1024.6mb 76f 75f
12:00am 14 16 mph 1024.7mb 76f 75f
Sun 03/01 11:42pm 15 18 mph 1024.9mb 76f 76f
11:36pm 11 16 mph 1024.9mb 76f 76f
11:30pm 13 17 mph 1024.9mb 76f 76f
11:24pm 14 18 mph 1024.9mb 76f 76f
11:00pm 13 16 mph 1025mb 76f 76f
10:54pm 14 16 mph 1025mb 76f 76f
10:30pm 14 16 mph - - -
10:24pm 14 17 mph 1025mb 76f 76f
10:00pm 14 17 mph 1024.9mb 76f 76f
9:54pm 13 17 mph 1025mb 76f 76f
9:48pm 15 18 mph 1025mb 76f 76f
9:42pm 15 18 mph 1024.9mb 76f 76f
9:36pm 14 18 mph 1025mb 76f 76f
9:30pm 14 18 mph 1025mb 76f 76f
9:24pm 15 18 mph 1024.9mb 76f 76f
9:18pm 15 21 mph 1024.9mb 76f 76f
9:12pm 16 21 mph 1024.8mb 76f 76f
8:48pm 15 20 mph 1024.7mb 76f 76f
8:42pm 16 21 mph 1024.6mb 76f 76f
8:36pm 15 18 mph 1024.6mb 76f 76f
8:30pm 16 21 mph 1024.6mb 76f 76f
8:24pm 15 20 mph 1024.6mb 76f 76f
8:06pm 14 18 mph 1024.4mb 76f 76f
8:00pm 15 20 mph 1024.4mb 76f 76f
7:54pm 14 18 mph 1024.5mb 76f 76f
7:48pm 15 18 mph 1024.3mb 76f 76f
7:42pm 15 18 mph 1024.3mb 76f 76f
7:36pm 15 18 mph 1024.2mb 76f 76f
7:30pm 16 20 mph 1024.2mb 76f 76f
7:24pm 14 17 mph 1024.2mb 76f 76f
7:18pm 15 17 mph 1024.2mb 76f 76f
7:12pm 14 16 mph - - -
7:06pm 13 18 mph 1024.1mb 76f 76f
7:00pm 15 18 mph 1024.1mb 76f 76f
6:54pm 14 17 mph 1024.2mb 76f 76f
6:48pm 13 17 mph 1024.2mb 76f 76f
6:42pm 14 17 mph 1024.2mb 76f 76f
6:36pm 14 17 mph 1024.1mb 76f 76f
6:30pm 10 16 mph - - -
6:24pm 14 16 mph 1024mb 76f 76f
6:18pm 14 17 mph 1024.1mb 76f 76f
6:12pm 14 17 mph 1024mb 76f 76f
6:06pm 14 17 mph 1023.9mb 76f 76f
6:00pm 13 16 mph 1023.9mb 76f 76f
5:54pm 13 16 mph 1023.9mb 76f 76f
5:48pm 14 17 mph 1023.9mb 76f 76f
5:42pm 14 16 mph 1023.9mb 76f 76f
5:36pm 13 16 mph 1024mb 76f 76f
5:30pm 15 17 mph 1024mb 76f 76f
5:24pm 14 16 mph 1023.9mb 76f 76f
5:18pm 14 17 mph 1024mb 76f 76f
5:12pm 15 17 mph 1023.9mb 77f 76f
5:06pm 13 16 mph 1023.9mb 77f 76f
5:00pm 10 15 mph 1023.9mb 77f 76f
4:54pm 14 16 mph 1023.8mb 77f 76f
4:48pm 13 16 mph 1023.8mb 77f 76f
4:42pm 13 17 mph 1023.8mb 77f 76f
4:36pm 14 16 mph 1023.7mb 77f 76f
4:30pm 13 17 mph 1023.7mb 77f 76f
4:24pm 15 17 mph 1023.7mb 77f 76f
4:18pm 14 17 mph 1023.7mb 77f 76f
4:12pm 14 16 mph 1023.6mb 77f 76f
4:06pm 14 16 mph 1023.6mb 77f 76f
4:00pm 14 16 mph 1023.6mb 76f 76f
3:54pm 13 16 mph 1023.6mb 76f 76f
3:48pm 13 16 mph 1023.6mb 76f 76f
3:42pm 13 16 mph 1023.6mb 76f 76f
3:36pm 14 16 mph 1023.6mb 76f 76f
3:30pm 11 14 mph 1023.7mb 76f 76f
3:24pm 14 16 mph 1023.7mb 76f 76f
3:18pm 13 15 mph 1023.8mb 76f 76f
3:12pm 10 14 mph 1023.8mb 76f 76f
3:06pm 11 15 mph 1023.9mb 75f 76f
3:00pm 11 15 mph 1024mb 75f 76f
2:54pm 11 15 mph 1024mb 75f 76f
2:48pm 11 15 mph 1024mb 75f 76f
2:42pm 13 15 mph 1024mb 75f 76f
2:36pm 13 15 mph 1024mb 75f 76f
2:30pm 11 14 mph 1024.1mb 75f -
2:24pm 9 15 mph 1024.1mb 76f 76f
2:18pm 14 15 mph 1024.2mb 76f 76f
2:12pm 13 15 mph 1024.3mb 76f 76f
2:06pm 10 14 mph 1024.4mb 75f 76f
2:00pm 11 14 mph 1024.5mb 75f 76f
1:54pm 14 15 mph 1024.5mb 75f 76f
1:48pm 13 15 mph 1024.6mb 75f 76f
1:42pm 11 15 mph 1024.6mb 75f 76f
1:36pm 11 15 mph 1024.7mb 75f 76f
1:30pm 13 15 mph - - -
1:24pm 11 16 mph 1024.8mb 75f 76f
1:18pm 13 16 mph 1024.9mb 75f 76f
1:12pm 13 15 mph 1025mb 75f 76f
1:06pm 11 15 mph 1025.1mb 75f 76f
1:00pm 13 16 mph 1025.2mb - -
12:54pm 11 15 mph 1025.3mb 75f 76f
12:48pm 11 16 mph 1025.4mb 75f 76f
12:42pm 13 16 mph 1025.4mb 75f 76f
12:36pm 13 17 mph 1025.4mb 75f 76f
12:30pm 13 17 mph 1025.5mb 75f 76f
12:24pm 13 16 mph 1025.6mb 75f 76f
12:18pm 11 16 mph 1025.7mb 75f 76f
12:12pm 13 16 mph 1025.8mb 74f 76f
12:06pm 13 17 mph 1025.8mb 74f 76f
12:00pm 15 17 mph 1025.8mb 74f 76f
11:54am 13 16 mph 1025.9mb 74f 76f
11:48am 13 18 mph 1025.9mb 74f 76f
11:42am 14 16 mph 1026mb 74f 76f
11:36am 13 16 mph 1026mb 74f 76f
11:30am 14 16 mph 1026mb 74f 76f
11:24am 14 18 mph 1026mb 74f 76f
11:18am 13 17 mph 1026mb 74f 76f
11:12am 14 17 mph 1026mb 74f 76f
11:06am 15 18 mph 1026mb 74f 76f
11:00am 15 17 mph 1026.1mb 74f 76f
10:54am 13 17 mph 1026.2mb 74f 76f
10:48am 15 18 mph 1026.2mb 74f 76f
10:42am 13 17 mph 1026.2mb 74f 76f
10:36am 14 17 mph 1026.3mb 74f 76f
10:30am 14 17 mph 1026.3mb 74f 76f
10:24am 13 16 mph 1026.3mb 74f 76f
10:18am 14 17 mph 1026.3mb 74f 76f
10:12am 15 16 mph 1026.3mb 74f 76f
10:06am 14 17 mph 1026.3mb 74f 76f
10:00am 13 17 mph 1026.3mb 74f 75f
9:54am 11 16 mph 1026.2mb 74f 75f
9:48am 14 16 mph 1026.2mb 74f 76f
9:42am 15 18 mph 1026.2mb 74f 75f
9:24am 15 20 mph 1026mb 74f 75f
9:18am 15 18 mph 1026mb 74f 76f
9:12am 14 17 mph 1026mb 74f 76f
9:06am 14 20 mph 1025.9mb 74f 76f
9:00am 14 18 mph 1025.8mb 74f 76f
8:54am 13 16 mph 1025.8mb 74f 76f
8:48am 14 17 mph 1025.8mb 74f 76f
8:42am 14 18 mph 1025.7mb 74f 76f
8:36am 14 16 mph 1025.6mb 74f 75f
8:30am 14 17 mph 1025.6mb 74f 75f
8:24am 11 16 mph 1025.5mb 74f 75f
8:06am 13 15 mph 1025.4mb 74f 76f
8:00am 14 20 mph 1025.4mb 74f 76f
7:54am 15 18 mph 1025.3mb 74f 75f
7:48am 15 18 mph 1025.2mb 74f 75f
7:42am 15 18 mph 1025.2mb - -
7:36am 14 16 mph 1025.2mb 74f 75f
7:30am 14 16 mph 1025.1mb 74f 75f
7:24am 14 17 mph 1025.1mb 74f 75f
7:18am 14 17 mph 1025mb 74f 75f
7:12am 14 17 mph 1025mb 74f 74f
7:06am 16 21 mph 1024.9mb 74f 74f
7:00am 15 20 mph 1024.8mb 74f 75f
6:54am 15 20 mph 1024.8mb 74f 75f
6:48am 15 21 mph 1024.5mb 74f 75f
6:42am 15 21 mph 1024.5mb 74f 75f
6:36am 17 22 mph 1024.5mb 74f 75f
6:30am 17 20 mph 1024.5mb 74f 75f
6:24am 17 24 mph 1024.4mb 74f 75f
6:18am 16 20 mph 1024.3mb 74f 75f
6:12am 15 21 mph 1024.3mb 74f 75f
6:06am 18 22 mph 1024.2mb 74f 75f
6:00am 18 21 mph 1024.1mb 74f 75f
5:54am 15 22 mph 1024.1mb 74f 75f
5:48am 16 22 mph 1024mb 74f 75f
5:42am 14 21 mph 1023.9mb 74f 75f
5:36am 15 22 mph 1023.9mb 74f 75f
5:30am 20 21 mph 1023.8mb 74f 75f
5:24am 17 21 mph 1023.8mb 74f 75f
5:18am 18 21 mph 1023.7mb 74f 75f
5:12am 16 21 mph 1023.8mb 74f 75f
5:06am 17 22 mph 1023.8mb 74f 75f
5:00am 18 22 mph 1023.7mb 74f 75f
4:54am 14 18 mph 1023.7mb 74f 75f
4:48am 16 21 mph 1023.6mb 74f 75f
4:42am 17 21 mph 1023.6mb 74f 75f
4:36am 16 20 mph 1023.5mb 74f 75f
4:30am 14 21 mph 1023.4mb 74f 75f
4:24am 18 21 mph 1023.3mb 74f 75f
4:18am 15 21 mph 1023.4mb 74f 75f
4:12am 16 21 mph 1023.4mb 74f 75f
4:06am 16 22 mph 1023.4mb 74f 75f
4:00am 15 21 mph 1023.4mb 74f 75f
3:54am 16 20 mph 1023.4mb 74f 75f
3:48am 14 20 mph 1023.5mb 74f 75f
3:42am 15 21 mph 1023.5mb 74f 75f